[[{"header":{"parameterUnit":"m.s-1","parameterCategory":1,"la1":30.2991,"la2":30.254,"lo1":-89.0895,"lo2":-89.0444,"dy":0.0017,"dx":0.0017,"nx":28,"ny":28,"refTime":"2024-10-10T03:00:00:Z","depth":0,"parameterNumber":2,"parameterNumberName":"U-component_of_WINDS"},"data":[0,0,0,0,0,0,0,0,0,0,0,0,0,0,0,0,0,0,0,0,0,0,0,0,0,0,0,0,0,0,0,0,0,0,0,0,0,0,0,0,0,0,0,0,0,0,0,0,0,0,0,0,0,0,0,0,0,0,-1.1776,-1.1776,0,-1.1781,-1.1781,-1.1781,-1.1762,-1.1762,-1.1761,-1.176,-1.1766,-1.1766,-1.1767,0,0,0,0,0,0,0,0,0,0,0,0,0,-1.1752,-1.1753,-1.1776,-1.1776,-1.1776,-1.1781,-1.1781,-1.1781,-1.1762,-1.1761,-1.1761,-1.176,-1.1766,-1.1766,-1.1767,0,0,0,0,0,0,0,0,0,0,0,0,0,-1.176,-1.1753,-1.1776,-1.1768,-1.1767,-1.1781,-1.1781,-1.1781,-1.1762,-1.1761,-1.1761,-1.176,-1.1765,-1.1766,-1.1767,-1.179,0,0,-1.177,-1.1771,0,0,0,0,0,0,0,0,-1.176,-1.1761,-1.1769,-1.1768,-1.1767,-1.177,-1.1774,-1.1784,-1.1763,-1.1764,-1.176,-1.1759,-1.1768,-1.1769,-1.1771,-1.179,-1.179,-1.177,-1.1771,-1.1771,-1.1772,0,0,0,0,0,0,0,-1.1759,-1.1761,-1.1778,-1.1769,-1.1768,-1.1764,-1.1764,-1.1776,-1.1771,-1.1764,-1.1762,-1.1763,-1.1767,-1.177,-1.1771,-1.179,-1.177,-1.1771,-1.1772,-1.1772,-1.1829,-1.183,0,0,0,0,0,0,-1.176,-1.1761,-1.1778,-1.1778,-1.1762,-1.1765,-1.1765,-1.177,-1.177,-1.177,-1.1764,-1.1762,-1.1769,-1.177,-1.1771,-1.1799,-1.1771,-1.1772,-1.1773,-1.1829,-1.183,-1.1831,0,0,0,0,0,0,-1.176,-1.1762,-1.1778,-1.1769,-1.1771,-1.1766,-1.1772,-1.177,-1.1773,-1.177,-1.1769,-1.1768,-1.1768,-1.177,-1.1786,-1.1799,-1.1773,-1.1774,-1.1827,-1.1829,-1.183,-1.1854,0,0,0,0,0,0,-1.1759,-1.1762,-1.177,-1.1769,-1.1771,-1.1792,-1.1773,-1.1771,-1.1775,-1.1773,-1.1774,-1.1773,-1.1768,-1.1784,-1.1787,-1.18,-1.1774,-1.1826,-1.1828,-1.183,-1.1852,-1.1856,-1.1859,0,0,0,0,0,-1.1758,-1.1776,-1.177,-1.1773,-1.1782,-1.1792,-1.1793,-1.1787,-1.1776,-1.1785,-1.1783,-1.1773,-1.1797,-1.1786,-1.1789,-1.1802,-1.1825,-1.1828,-1.183,-1.185,-1.1855,-1.1859,0,0,0,0,0,0,-1.1778,-1.1776,-1.177,-1.1788,-1.1791,-1.1789,-1.18,-1.1792,-1.1798,-1.1796,-1.1787,-1.1787,-1.1805,-1.1805,-1.1793,-1.1825,-1.1809,-1.1812,-1.1824,-1.1829,-1.1832,-1.1832,-1.1775,0,0,0,0,0,-1.1785,-1.1794,-1.1791,-1.1808,-1.1809,-1.1804,-1.1809,-1.1803,-1.1806,-1.1807,-1.1806,-1.1809,-1.1817,-1.1823,-1.183,-1.1851,-1.1852,-1.1862,-1.1866,-1.1869,-1.1872,-1.1884,-1.1889,-1.1838,-1.1837,-1.1837,0,0,-1.1799,-1.1799,-1.1805,-1.1812,-1.1813,-1.1823,-1.1805,-1.1816,-1.1824,-1.1809,-1.1824,-1.1823,-1.1826,-1.1845,-1.1853,-1.1846,-1.1886,-1.1871,-1.1874,-1.1875,-1.1887,-1.1892,-1.1896,-1.1839,-1.1839,-1.1838,0,0,-1.1829,-1.1829,-1.1844,-1.1846,-1.1848,-1.1845,-1.1848,-1.1848,-1.1847,-1.1862,-1.1851,-1.186,-1.1874,-1.1877,-1.188,-1.1912,-1.1904,-1.1915,-1.1935,-1.1947,-1.1951,-1.1955,-1.1967,-1.1972,-1.1917,-1.1917,-1.1917,0,-1.1846,-1.186,-1.1852,-1.1864,-1.1868,-1.1855,-1.187,-1.1872,-1.1876,-1.188,-1.1871,-1.1889,-1.189,-1.191,-1.1918,-1.192,-1.1925,-1.1915,-1.1951,-1.1954,-1.1958,-1.197,-1.1974,-1.1919,-1.1919,-1.1918,-1.1918,0,-1.1882,-1.1891,-1.1903,-1.1908,-1.1913,-1.1926,-1.1921,-1.1927,-1.1921,-1.1919,-1.1935,-1.1935,-1.1943,-1.1947,-1.1942,-1.1967,-1.1962,-1.1952,-1.1937,-1.1964,-1.1975,-1.198,-1.1921,-1.192,-1.192,-1.192,0,0,-1.1925,-1.1926,-1.193,-1.1933,-1.1935,-1.1942,-1.1955,-1.1963,-1.1969,-1.1973,-1.1984,-1.1996,-1.1987,-1.1991,-1.1986,-1.1996,-1.2023,-1.1985,-1.1985,-1.1993,-1.2053,-1.2061,-1.2067,-1.2018,-1.2018,-1.2019,-1.2053,0,-1.1956,-1.1978,-1.1971,-1.1994,-1.2004,-1.1991,-1.2003,-1.2006,-1.2004,-1.2012,-1.2011,-1.202,-1.2007,-1.2009,-1.2019,-1.2018,-1.2035,-1.2015,-1.2029,-1.203,-1.203,-1.2072,-1.2081,-1.2113,-1.2057,-1.2058,-1.2058,0,-1.1995,-1.2,-1.2024,-1.2025,-1.2029,-1.2039,-1.2046,-1.2054,-1.2057,-1.2055,-1.206,-1.2052,-1.2066,-1.205,-1.2069,-1.2056,-1.2061,-1.2061,-1.2062,-1.2064,-1.2047,-1.2077,-1.2123,-1.2128,-1.2065,-1.2064,-1.2064,0,-1.2026,-1.2039,-1.2055,-1.2058,-1.2059,-1.2067,-1.2068,-1.207,-1.2075,-1.2081,-1.2085,-1.2092,-1.2096,-1.2103,-1.2098,-1.2086,-1.2118,-1.2102,-1.2118,-1.2119,-1.2126,-1.2126,-1.2176,-1.2128,-1.2128,-1.2128,-1.2128,0,-1.2061,-1.2077,-1.2069,-1.2079,-1.2096,-1.2089,-1.2106,-1.2105,-1.2108,-1.2118,-1.2107,-1.2117,-1.211,-1.2119,-1.2116,-1.2133,-1.2135,-1.2134,-1.2133,-1.2136,-1.2136,-1.214,-1.2138,-1.2129,-1.2129,-1.2128,-1.2128,0,-1.2099,-1.2095,-1.2112,-1.2112,-1.2112,-1.2125,-1.2125,-1.2135,-1.2132,-1.2146,-1.2148,-1.2145,-1.2156,-1.2151,-1.2162,-1.216,-1.2183,-1.2178,-1.2182,-1.2181,-1.2198,-1.2197,-1.2253,-1.226,-1.2207,-1.2207,-1.2207,0,-1.2123,-1.2135,-1.2136,-1.2142,-1.2144,-1.2154,-1.2159,-1.2152,-1.2158,-1.2163,-1.2172,-1.2182,-1.219,-1.2208,-1.2206,-1.2215,-1.2212,-1.2231,-1.2213,-1.2216,-1.2214,-1.2214,-1.2216,-1.2235,-1.2235,-1.2236,-1.2236,0,-1.2166,-1.2164,-1.2172,-1.2179,-1.2186,-1.2192,-1.2196,-1.2202,-1.2195,-1.2203,-1.2213,-1.2219,-1.2231,-1.2242,-1.225,-1.2251,-1.2243,-1.2241,-1.2246,-1.225,-1.2252,-1.2252,-1.2193,-1.224,-1.224,-1.224,-1.2239,-1.2239,-1.2199,-1.2209,-1.2212,-1.2221,-1.2224,-1.2229,-1.2238,-1.2237,-1.2246,-1.2255,-1.225,-1.2263,-1.2267,-1.2277,-1.228,-1.229,-1.2283,-1.2289,-1.2291,-1.2293,-1.2296,-1.2249,-1.2291,-1.2291,-1.2291,-1.2291,-1.2291,0,-1.2243,-1.2244,-1.2253,-1.226,-1.2268,-1.2259,-1.2263,-1.2271,-1.2282,-1.2286,-1.2294,-1.2307,-1.2317,-1.2317,-1.2326,-1.2335,-1.2332,-1.2338,-1.2338,-1.2339,-1.2301,-1.2297,-1.2341,-1.2341,-1.2341,-1.2341,-1.2341,-1.2341,-1.2266,-1.2284,-1.2281,-1.23,-1.2301,-1.2314,-1.2318,-1.2322,-1.2325,-1.234,-1.2349,-1.2348,-1.2351,-1.2361,-1.237,-1.237,-1.2374,-1.2382,-1.2381,-1.2346,-1.2341,-1.2337,-1.2333,-1.2383,-1.2383,-1.2418,-1.2418,-1.2418]},{"header":{"parameterUnit":"m.s-1","parameterCategory":1,"la1":30.2991,"la2":30.254,"lo1":-89.0895,"lo2":-89.0444,"dy":0.0017,"dx":0.0017,"nx":28,"ny":28,"refTime":"2024-10-10T03:00:00:Z","depth":0,"parameterNumber":3,"parameterNumberName":"V-component_of_WINDS"},"data":[0,0,0,0,0,0,0,0,0,0,0,0,0,0,0,0,0,0,0,0,0,0,0,0,0,0,0,0,0,0,0,0,0,0,0,0,0,0,0,0,0,0,0,0,0,0,0,0,0,0,0,0,0,0,0,0,0,0,-0.9052,-0.9054,0,-0.9246,-0.9249,-0.9251,-0.9364,-0.9365,-0.9365,-0.9366,-0.9566,-0.9571,-0.9575,0,0,0,0,0,0,0,0,0,0,0,0,0,-0.8779,-0.8783,-0.9051,-0.9054,-0.9056,-0.9246,-0.9249,-0.9251,-0.9364,-0.9365,-0.9365,-0.9366,-0.9564,-0.957,-0.9576,0,0,0,0,0,0,0,0,0,0,0,0,0,-0.8927,-0.8785,-0.9051,-0.9136,-0.9145,-0.9245,-0.9249,-0.9252,-0.9364,-0.9365,-0.9366,-0.9366,-0.9562,-0.9569,-0.9577,-0.9608,0,0,-0.9599,-0.9602,0,0,0,0,0,0,0,0,-0.8919,-0.8937,-0.9121,-0.913,-0.9141,-0.9282,-0.9226,-0.9371,-0.9364,-0.9281,-0.9366,-0.9367,-0.9471,-0.9486,-0.9521,-0.9618,-0.9626,-0.96,-0.9604,-0.9607,-0.9609,0,0,0,0,0,0,0,-0.8908,-0.893,-0.9129,-0.9123,-0.9136,-0.9164,-0.9186,-0.9254,-0.937,-0.9288,-0.9297,-0.9318,-0.9476,-0.9513,-0.9526,-0.9629,-0.96,-0.9606,-0.9611,-0.9613,-0.9763,-0.9763,0,0,0,0,0,0,-0.8885,-0.892,-0.9122,-0.9134,-0.9029,-0.9168,-0.9193,-0.9236,-0.9369,-0.939,-0.9318,-0.9323,-0.95,-0.9518,-0.9534,-0.9581,-0.9607,-0.9614,-0.9618,-0.9764,-0.9763,-0.9763,0,0,0,0,0,0,-0.8878,-0.8902,-0.9115,-0.903,-0.9059,-0.9172,-0.922,-0.9239,-0.9276,-0.9391,-0.9413,-0.9334,-0.9502,-0.9523,-0.9589,-0.9589,-0.9618,-0.9624,-0.9764,-0.9764,-0.9763,-0.9674,0,0,0,0,0,0,-0.887,-0.8899,-0.8911,-0.9029,-0.9063,-0.9166,-0.922,-0.9243,-0.9289,-0.9298,-0.9413,-0.9432,-0.9504,-0.9578,-0.9596,-0.96,-0.963,-0.9765,-0.9764,-0.9763,-0.9677,-0.967,-0.9664,0,0,0,0,0,-0.886,-0.8878,-0.8911,-0.8935,-0.9082,-0.9166,-0.9185,-0.9267,-0.9288,-0.9302,-0.9376,-0.9429,-0.9586,-0.9583,-0.9606,-0.9611,-0.9765,-0.9764,-0.9763,-0.968,-0.9672,-0.9664,0,0,0,0,0,0,-0.8757,-0.8895,-0.8934,-0.8991,-0.9066,-0.9185,-0.9205,-0.9255,-0.9326,-0.9331,-0.943,-0.9455,-0.9512,-0.9568,-0.9563,-0.965,-0.9682,-0.9685,-0.9611,-0.9604,-0.9597,-0.9583,-0.9636,0,0,0,0,0,-0.8741,-0.8798,-0.8915,-0.8955,-0.899,-0.9091,-0.913,-0.9187,-0.9269,-0.9301,-0.938,-0.9458,-0.9525,-0.9567,-0.9635,-0.9686,-0.9713,-0.9701,-0.9694,-0.9688,-0.969,-0.9723,-0.9719,-0.976,-0.976,-0.976,0,0,-0.8709,-0.8791,-0.8821,-0.8936,-0.9001,-0.9058,-0.9117,-0.9174,-0.9218,-0.931,-0.9378,-0.9438,-0.9531,-0.959,-0.9619,-0.9639,-0.9685,-0.9687,-0.9681,-0.9687,-0.9721,-0.9717,-0.9714,-0.9759,-0.9759,-0.9759,0,0,-0.8679,-0.8747,-0.8788,-0.8851,-0.8949,-0.9016,-0.9025,-0.9137,-0.9181,-0.925,-0.9321,-0.9374,-0.9487,-0.9551,-0.9599,-0.9594,-0.9645,-0.9613,-0.9579,-0.961,-0.9607,-0.9604,-0.9604,-0.9602,-0.9615,-0.9614,-0.9614,0,-0.8627,-0.8715,-0.8802,-0.8856,-0.8905,-0.8991,-0.9033,-0.9091,-0.9205,-0.9238,-0.9257,-0.9402,-0.9471,-0.9546,-0.9545,-0.958,-0.9595,-0.9601,-0.96,-0.9598,-0.9598,-0.9598,-0.9598,-0.961,-0.9611,-0.9611,-0.9611,0,-0.8647,-0.8707,-0.8728,-0.8837,-0.8888,-0.8936,-0.903,-0.9072,-0.9124,-0.9189,-0.9258,-0.9344,-0.9432,-0.9453,-0.9505,-0.9537,-0.9546,-0.9581,-0.9615,-0.9588,-0.959,-0.9591,-0.9604,-0.9605,-0.9607,-0.9608,0,0,-0.8559,-0.8715,-0.8721,-0.8772,-0.8886,-0.8935,-0.8986,-0.9072,-0.9106,-0.9182,-0.9229,-0.9323,-0.9357,-0.9411,-0.947,-0.9497,-0.9489,-0.953,-0.9533,-0.952,-0.9531,-0.9504,-0.9503,-0.9523,-0.9524,-0.9524,-0.9524,0,-0.8547,-0.8644,-0.8724,-0.8792,-0.8849,-0.8932,-0.8977,-0.9052,-0.9114,-0.9173,-0.9242,-0.9307,-0.9346,-0.9379,-0.9409,-0.9483,-0.9493,-0.9484,-0.9569,-0.9571,-0.9544,-0.9505,-0.9477,-0.9472,-0.9525,-0.9525,-0.9526,0,-0.8546,-0.8619,-0.8693,-0.8802,-0.8829,-0.8868,-0.8954,-0.9008,-0.9095,-0.9138,-0.9198,-0.926,-0.932,-0.9347,-0.9431,-0.9424,-0.9463,-0.9505,-0.9507,-0.9519,-0.9547,-0.9517,-0.9473,-0.9472,-0.9528,-0.9527,-0.9527,0,-0.8476,-0.8593,-0.8653,-0.8693,-0.8821,-0.8847,-0.8902,-0.899,-0.9037,-0.9111,-0.9143,-0.9223,-0.9267,-0.9328,-0.9411,-0.9423,-0.9487,-0.9521,-0.9526,-0.9523,-0.9536,-0.9535,-0.9499,-0.9559,-0.9559,-0.9559,-0.9559,0,-0.8456,-0.8498,-0.8623,-0.866,-0.871,-0.8801,-0.8848,-0.8909,-0.8987,-0.9038,-0.9114,-0.916,-0.9265,-0.9324,-0.9389,-0.945,-0.9469,-0.9506,-0.9523,-0.95,-0.9496,-0.9528,-0.9531,-0.9559,-0.9559,-0.9559,-0.9559,0,-0.8386,-0.8472,-0.8542,-0.8658,-0.8688,-0.872,-0.8819,-0.8858,-0.8924,-0.8988,-0.9008,-0.9112,-0.9186,-0.9273,-0.9375,-0.9419,-0.9474,-0.9499,-0.9445,-0.9455,-0.9455,-0.9454,-0.9441,-0.9444,-0.9499,-0.9498,-0.9498,0,-0.8368,-0.8403,-0.8522,-0.8561,-0.8614,-0.8676,-0.8724,-0.8815,-0.8862,-0.8964,-0.8991,-0.907,-0.9139,-0.9253,-0.9338,-0.9417,-0.9445,-0.9434,-0.9457,-0.9433,-0.9446,-0.9444,-0.9448,-0.9428,-0.9427,-0.9426,-0.9426,0,-0.8327,-0.8368,-0.8434,-0.8515,-0.8571,-0.8639,-0.8711,-0.8738,-0.8844,-0.8893,-0.8969,-0.9022,-0.9126,-0.9205,-0.9294,-0.9352,-0.9407,-0.9418,-0.9424,-0.9401,-0.9369,-0.9388,-0.943,-0.9418,-0.9419,-0.9419,-0.942,-0.942,-0.8285,-0.832,-0.8409,-0.8481,-0.8544,-0.8609,-0.8652,-0.8723,-0.8788,-0.888,-0.893,-0.9005,-0.9092,-0.9218,-0.9274,-0.9334,-0.9354,-0.9361,-0.9364,-0.9365,-0.9358,-0.9358,-0.9351,-0.9351,-0.9352,-0.9352,-0.9352,0,-0.8249,-0.8311,-0.8376,-0.8473,-0.853,-0.8576,-0.8658,-0.8702,-0.8767,-0.8843,-0.8909,-0.8997,-0.9073,-0.9164,-0.9247,-0.9278,-0.9305,-0.9297,-0.9296,-0.9309,-0.9336,-0.9323,-0.9273,-0.9273,-0.9273,-0.9273,-0.9273,-0.9273,-0.8237,-0.8299,-0.835,-0.8445,-0.8507,-0.8581,-0.8623,-0.8684,-0.8746,-0.8841,-0.8904,-0.8963,-0.9046,-0.9135,-0.9207,-0.9233,-0.926,-0.9244,-0.9276,-0.93,-0.9307,-0.9313,-0.9302,-0.9249,-0.9249,-0.9245,-0.9245,-0.9245]}]]